Location: Vancouver
(49.2500°N, 123.1330°W)
Time: 11:58:23
(UTC-07:00)

Transit 2A Rocket - Visible Passes

Search period start: 02 September 2015 00:00
Search period end: 12 September 2015 00:00
Orbit: 593 x 913 km, 66.7° (Epoch: 01 September)

Date Brightness Start Highest point End Pass type
(mag) Time Alt. Az. Time Alt. Az. Time Alt. Az.
02 Sep 6.1 21:01:00 10° NNW 21:04:40 24° NE 21:07:33 13° E visible
02 Sep 4.7 22:43:17 10° NW 22:47:28 62° WSW 22:47:28 62° WSW visible
03 Sep 6.5 20:19:06 10° NNW 20:22:08 17° NNE 20:25:09 10° ENE visible
03 Sep 4.4 22:01:05 10° NW 22:05:33 76° NE 22:06:23 56° ESE visible
03 Sep 7.1 23:45:07 10° WNW 23:46:18 13° W 23:46:18 13° W visible
04 Sep 5.0 21:18:59 10° NNW 21:23:19 46° NE 21:25:19 27° ESE visible
04 Sep 6.2 23:02:02 10° WNW 23:05:15 24° WSW 23:05:15 24° WSW visible
05 Sep 5.7 20:36:58 10° NNW 20:40:57 30° NE 20:44:19 13° E visible
05 Sep 5.2 22:19:29 10° NW 22:23:40 42° WSW 22:24:14 40° SW visible
06 Sep 4.5 21:37:10 10° NW 21:41:37 75° WSW 21:43:16 36° SSE visible
07 Sep 4.6 20:55:01 10° NNW 20:59:27 66° NE 21:02:21 20° SE visible
07 Sep 6.7 22:38:40 10° WNW 22:41:31 17° WSW 22:42:18 16° WSW visible
08 Sep 5.2 20:12:56 10° NNW 20:17:10 40° NE 20:21:15 10° ESE visible
08 Sep 6.1 21:55:48 10° NW 21:59:36 29° WSW 22:01:26 21° SSW visible
09 Sep 5.2 21:13:20 10° NW 21:17:36 50° WSW 21:20:39 17° S visible
10 Sep 4.5 20:31:05 10° NW 20:35:31 87° SW 20:39:48 10° SSE visible
10 Sep 7.2 22:16:00 10° W 22:17:23 11° WSW 22:18:32 10° WSW visible
11 Sep 6.8 21:32:18 10° WNW 21:35:30 20° WSW 21:38:34 10° SSW visible
